FW0428 Weather Reports


Display with metric or nautical units.
time (UTC)temp
F
wind
direction
speed
MPH
gust
MPH
rain 1hr
in
rain 24hr
in
rain mn
in
humidity
%
barometer
mb
20260902034542 85 277 0.0 2.0 0.00 0.00 0.00 65 1013.2
20260902033052 85 273 0.0 2.0 0.00 0.00 0.00 65 1013.2
20260902031537 85 275 0.0 2.0 0.00 0.00 0.00 65 1013.1
20260902024511 86 281 0.0 2.0 0.00 0.00 0.00 65 1012.7
20260902023107 86 279 0.0 2.0 0.00 0.00 0.00 64 1012.4
20260902021635 86 277 0.0 1.0 0.00 0.00 0.00 63 1012.2
20260902014517 87 264 0.0 3.0 0.00 0.00 0.00 62 1011.9
20260902010145 89 250 0.0 2.0 0.00 0.00 0.00 60 1011.9
20260902001632 94 290 0.0 3.0 0.00 0.00 0.00 44 1010.9
20260902000149 95 271 1.0 6.0 0.00 0.00 0.00 43 1010.8
20260901233014 96 271 1.0 5.0 0.00 0.00 0.00 41 1010.8
20260901221637 97 281 2.0 5.0 0.00 0.00 0.00 42 1011.0
20260901201519 97 309 1.0 4.0 0.00 0.00 0.00 44 1012.4
20260901190141 96 257 1.0 3.0 0.00 0.00 0.00 47 1012.7
20260901183017 95 283 1.0 3.0 0.00 0.00 0.00 48 1013.3
20260901171603 94 265 0.0 4.0 0.00 0.00 0.00 50 1014.6
20260901170105 93 272 1.0 5.0 0.00 0.00 0.00 54 1014.9
20260901163013 93 264 1.0 3.0 0.00 0.00 0.00 54 1015.2
20260901154636 92 248 0.0 3.0 0.00 0.00 0.00 56 1015.4
20260901153148 91 261 0.0 2.0 0.00 0.00 0.00 60 1015.4
20260901151554 89 122 0.0 2.0 0.00 0.00 0.00 63 1015.5
20260901131610 80 279 0.0 0.0 0.00 0.00 0.00 80 1015.6
20260901130141 78 279 0.0 0.0 0.00 0.00 0.00 81 1015.6
20260901121646 76 221 0.0 0.0 0.00 0.00 0.00 83 1015.2
20260901120126 76 221 0.0 0.0 0.00 0.00 0.00 82 1014.9
20260901101512 78 221 0.0 0.0 0.00 0.00 0.00 78 1014.4
20260901100111 78 221 0.0 0.0 0.00 0.00 0.00 77 1014.3
20260901091606 79 221 0.0 0.0 0.00 0.00 0.00 75 1014.3
20260901071629 82 170 0.0 1.0 0.00 0.00 0.00 67 1014.3
20260901070044 82 226 0.0 1.0 0.00 0.00 0.00 66 1014.3
20260901064602 83 225 0.0 1.0 0.00 0.00 0.00 64 1014.4
20260901063103 83 215 0.0 1.0 0.00 0.00 0.00 63 1014.3
20260901061508 84 216 0.0 2.0 0.00 0.00 0.00 62 1014.1
20260901060044 84 244 0.0 1.0 0.00 0.00 0.00 61 1014.1
20260901054537 85 269 0.0 1.0 0.00 0.00 0.00 60 1013.9
20260901053014 85 279 0.0 1.0 0.00 0.00 0.00 60 1013.6
20260901051607 85 275 0.0 1.0 0.00 0.00 0.00 60 1013.5
20260901050145 86 275 0.0 1.0 0.00 0.00 0.00 59 1013.4